TimePST,TemperatureF,Dew PointF,Humidity,Sea Level PressureIn,VisibilityMPH,Wind Direction,Wind SpeedMPH,Gust SpeedMPH,PrecipitationIn,Events,Conditions,WindDirDegrees,DateUTC
12:56 AM,48.9,37.9,66,30.09,10.0,WNW,17.3,-,N/A,,Mostly Cloudy,290,2013-01-27 08:56:00
1:56 AM,48.0,39.9,74,30.10,10.0,WNW,15.0,21.9,0.00,,Partly Cloudy,290,2013-01-27 09:56:00
2:56 AM,48.0,39.9,74,30.09,10.0,West,17.3,-,N/A,,Partly Cloudy,280,2013-01-27 10:56:00
3:56 AM,46.9,37.9,71,30.10,10.0,West,18.4,-,N/A,,Clear,280,2013-01-27 11:56:00
4:56 AM,46.9,37.0,68,30.09,10.0,WNW,17.3,-,N/A,,Clear,290,2013-01-27 12:56:00
5:56 AM,46.9,37.0,68,30.10,10.0,WNW,11.5,-,N/A,,Partly Cloudy,290,2013-01-27 13:56:00
6:56 AM,46.0,36.0,68,30.12,10.0,WNW,9.2,-,N/A,,Partly Cloudy,300,2013-01-27 14:56:00
7:56 AM,46.0,35.1,66,30.14,10.0,West,6.9,-,N/A,,Partly Cloudy,270,2013-01-27 15:56:00
8:56 AM,48.0,35.1,61,30.15,10.0,NNW,11.5,-,N/A,,Partly Cloudy,330,2013-01-27 16:56:00
9:56 AM,50.0,35.1,57,30.17,10.0,North,4.6,-,N/A,,Partly Cloudy,10,2013-01-27 17:56:00
10:56 AM,50.0,36.0,59,30.19,10.0,ENE,3.5,-,N/A,,Partly Cloudy,60,2013-01-27 18:56:00
11:56 AM,51.1,36.0,56,30.18,10.0,NNE,4.6,-,N/A,,Partly Cloudy,30,2013-01-27 19:56:00
12:56 PM,52.0,37.9,59,30.16,10.0,North,6.9,-,N/A,,Partly Cloudy,360,2013-01-27 20:56:00
1:56 PM,54.0,36.0,51,30.15,10.0,WNW,9.2,17.3,N/A,,Partly Cloudy,300,2013-01-27 21:56:00
2:56 PM,54.0,36.0,51,30.15,10.0,West,13.8,-,N/A,,Partly Cloudy,280,2013-01-27 22:56:00
3:56 PM,53.1,37.9,57,30.14,10.0,WNW,16.1,-,N/A,,Partly Cloudy,290,2013-01-27 23:56:00
4:56 PM,51.1,39.0,63,30.14,10.0,WNW,16.1,-,N/A,,Scattered Clouds,290,2013-01-28 00:56:00
5:56 PM,48.2,39.2,71,30.15,10.0,West,16.1,-,N/A,,Partly Cloudy,280,2013-01-28 01:56:00
6:56 PM,48.9,39.0,69,30.15,10.0,West,19.6,-,N/A,,Partly Cloudy,280,2013-01-28 02:56:00
7:56 PM,48.0,39.0,71,30.15,10.0,WNW,19.6,-,N/A,,Clear,290,2013-01-28 03:56:00
8:56 PM,48.0,39.0,71,30.16,10.0,WNW,12.7,-,N/A,,Clear,290,2013-01-28 04:56:00
9:56 PM,48.0,39.0,71,30.17,10.0,WNW,11.5,-,N/A,,Scattered Clouds,290,2013-01-28 05:56:00
10:56 PM,46.9,37.9,71,30.17,10.0,WNW,11.5,-,N/A,,Mostly Cloudy,290,2013-01-28 06:56:00
11:56 PM,46.9,37.0,68,30.18,10.0,WNW,10.4,-,N/A,,Partly Cloudy,290,2013-01-28 07:56:00